ATLAS D DEB, 2327

Orbit data source: Space-Track

ATLAS D DEB, 2327 is space debris in LEO originally from a launch on Thu, 14 Jul 1966 UTC launched from the Air Force Western Test Range (AFWTR). Debris objects in space refer to the collection of defunct objects orbiting the Earth. Examples of debris include non-operational satellites, rocket bodies, and fragments generated from explosions, collisions, or faulty payload assembly.

Loading next visibility...
Identifier
2327, 1966-063B
Orbit
LEO
Country
Flag of USUS
Related business
Manufacturer
Goodyear
Mission
Spacecraft
Bus & Motor
CONTAINER, Unknown motor
Mass
2 kg wet, 2 kg dry
Launch date (UTC)
1966-07-14 (59 years ago)
Launch vehicle
Unknown
Launch site
Air Force Western Test Range (AFWTR)
Object type
Payload
Rocket body
Debris
Shape & HBR
Unknown
Radar Cross Section
Medium (>0.1 m² and <1 m²)

Expand to show TLE details & history
Last TLE update: 7 hours ago

TLE from 7 hours ago
0 ATLAS D DEB
1 02327U 66063B   25340.63925114  .00001980  00000-0  10385-2 0  9997
2 02327 144.1967  11.5317 0031227 203.1306 156.7975 14.05220695 10988
Epoch: 2025-12-06T15:20Z
TLE epoch observation values (Epoch: 2025-12-06T15:20:31.298Z)
Latitude
-0.00001°
Longitude
65.7372°
Altitude
895.643 km
Speed
7.396 km/s
True Right ascension
00h 46m 07s
True Declination
0° 00' 00"
Sunlit
Object was in daylight at epoch
Visualization orbit readout
Latitude
Unknown
Longitude
Unknown
Altitude
Unknown
Speed
Unknown
Apparent Right ascension
Unknown
Apparent Declination
Unknown
Sunlit
N/A
Visualization observer readout
Local Sidereal Time
20:25:56
Azimuth
Unknown
Elevation
Unknown
Doppler factor
Unknown
Orbital elements
Apogee altitude
901.394 km
Perigee altitude
856.072 km
Semi-major axis
7,256.87 km
Eccentricity
0.00312
Inclination
144.1967°
RAAN
11.5317°
Arg. of periapsis
203.1306°
True anomaly
156.93798°
Mean anomaly
156.7975°
Eccentric anomaly
156.86779°
Mean motion
3.51091 °/min
Orbital period
102.54 mins
BSTAR
0.0010385
Loading maneuver chart data...
Computing Atmospheric mass density...
Loading historical data...
Loading historical data...
Loading historical data...
Loading historical data...
Loading historical data...
Loading historical data...
Loading historical data...

Documentation

Showing up to 5 results
|